TimeCDT,TemperatureF,Dew PointF,Humidity,Sea Level PressureIn,VisibilityMPH,Wind Direction,Wind SpeedMPH,Gust SpeedMPH,PrecipitationIn,Events,Conditions,WindDirDegrees,DateUTC
12:15 AM,60.8,57.2,88,29.99,10.0,Calm,Calm,-,N/A,,Clear,0,2013-05-09 05:15:00
12:35 AM,60.8,57.2,88,30.00,10.0,Calm,Calm,-,N/A,,Clear,0,2013-05-09 05:35:00
12:55 AM,60.8,57.2,88,29.99,10.0,Calm,Calm,-,N/A,,Clear,0,2013-05-09 05:55:00
1:15 AM,57.2,55.4,94,29.99,10.0,Calm,Calm,-,N/A,,Clear,0,2013-05-09 06:15:00
3:15 AM,57.2,57.2,100,29.99,10.0,Calm,Calm,-,N/A,,Clear,0,2013-05-09 08:15:00
4:15 AM,57.2,57.2,100,29.98,10.0,Calm,Calm,-,N/A,,Scattered Clouds,0,2013-05-09 09:15:00
4:35 AM,59.0,57.2,94,29.99,10.0,Calm,Calm,-,N/A,,Scattered Clouds,0,2013-05-09 09:35:00
4:55 AM,59.0,59.0,100,29.99,10.0,Calm,Calm,-,N/A,,Mostly Cloudy,0,2013-05-09 09:55:00
5:35 AM,64.4,57.2,77,29.99,10.0,SSW,3.5,-,N/A,,Scattered Clouds,200,2013-05-09 10:35:00
6:15 AM,64.4,57.2,77,29.98,10.0,South,4.6,-,N/A,,Overcast,170,2013-05-09 11:15:00
6:55 AM,66.2,59.0,78,29.98,10.0,Calm,Calm,-,N/A,,Mostly Cloudy,0,2013-05-09 11:55:00
7:15 AM,66.2,57.2,73,29.99,10.0,SW,4.6,-,N/A,,Mostly Cloudy,220,2013-05-09 12:15:00
7:35 AM,64.4,60.8,88,29.99,10.0,South,3.5,-,N/A,,Mostly Cloudy,190,2013-05-09 12:35:00
9:35 AM,73.4,60.8,65,30.00,10.0,South,5.8,-,N/A,,Scattered Clouds,170,2013-05-09 14:35:00
9:55 AM,75.2,62.6,65,30.00,10.0,South,4.6,-,N/A,Thunderstorm,Scattered Clouds,180,2013-05-09 14:55:00
10:15 AM,75.2,62.6,65,29.99,10.0,SSE,6.9,-,N/A,,Scattered Clouds,160,2013-05-09 15:15:00
10:35 AM,78.8,62.6,57,29.99,10.0,South,10.4,-,N/A,,Clear,180,2013-05-09 15:35:00
10:55 AM,77.0,60.8,57,29.99,10.0,South,6.9,-,N/A,,Scattered Clouds,170,2013-05-09 15:55:00
11:15 AM,78.8,62.6,57,29.99,10.0,South,11.5,-,N/A,,Scattered Clouds,190,2013-05-09 16:15:00
11:35 AM,78.8,60.8,54,29.98,10.0,South,12.7,19.6,N/A,,Clear,170,2013-05-09 16:35:00
11:55 AM,80.6,60.8,51,29.97,10.0,South,11.5,17.3,N/A,,Clear,170,2013-05-09 16:55:00
12:15 PM,80.6,60.8,51,29.97,10.0,South,16.1,20.7,N/A,,Clear,180,2013-05-09 17:15:00
12:35 PM,80.6,60.8,51,29.96,10.0,South,11.5,20.7,N/A,Thunderstorm,Scattered Clouds,180,2013-05-09 17:35:00
12:55 PM,75.2,60.8,61,29.96,10.0,SW,8.1,-,N/A,Rain-Thunderstorm,Light Thunderstorms and Rain,220,2013-05-09 17:55:00
1:15 PM,68.0,62.6,83,29.97,5.0,South,6.9,19.6,N/A,Rain,Heavy Rain,190,2013-05-09 18:15:00
1:35 PM,66.2,60.8,83,29.96,10.0,SSE,5.8,19.6,N/A,Rain-Thunderstorm,Light Thunderstorms and Rain,160,2013-05-09 18:35:00
1:55 PM,71.6,64.4,78,29.95,10.0,SSE,5.8,-,N/A,,Scattered Clouds,150,2013-05-09 18:55:00
2:15 PM,71.6,62.6,73,29.94,10.0,SSE,6.9,-,N/A,,Scattered Clouds,160,2013-05-09 19:15:00
3:15 PM,75.2,64.4,69,29.91,10.0,SSE,9.2,-,N/A,,Clear,150,2013-05-09 20:15:00
3:35 PM,75.2,64.4,69,29.89,10.0,SSE,11.5,-,N/A,,Clear,150,2013-05-09 20:35:00
3:55 PM,77.0,64.4,65,29.88,10.0,SE,11.5,-,N/A,,Scattered Clouds,140,2013-05-09 20:55:00
4:15 PM,80.6,66.2,61,29.87,10.0,SSE,8.1,-,N/A,,Scattered Clouds,160,2013-05-09 21:15:00
4:35 PM,77.0,64.4,65,29.86,10.0,SSE,9.2,20.7,N/A,,Clear,160,2013-05-09 21:35:00
4:55 PM,77.0,62.6,61,29.85,10.0,South,15.0,21.9,N/A,,Clear,170,2013-05-09 21:55:00
5:15 PM,75.2,62.6,65,29.83,10.0,South,10.4,17.3,N/A,,Clear,170,2013-05-09 22:15:00
5:35 PM,75.2,62.6,65,29.84,10.0,South,10.4,-,N/A,Thunderstorm,Scattered Clouds,180,2013-05-09 22:35:00
5:55 PM,71.6,62.6,73,29.87,7.0,WNW,16.1,24.2,N/A,Rain-Thunderstorm,Light Thunderstorms and Rain,300,2013-05-09 22:55:00
6:15 PM,66.2,62.6,88,29.86,10.0,WSW,5.8,-,N/A,Rain-Thunderstorm,Light Thunderstorms and Rain,240,2013-05-09 23:15:00
6:35 PM,68.0,64.4,88,29.87,10.0,West,8.1,-,N/A,,Overcast,270,2013-05-09 23:35:00
6:55 PM,66.2,62.6,88,29.88,7.0,WSW,8.1,-,N/A,Rain,Light Rain,250,2013-05-09 23:55:00
7:35 PM,66.2,62.6,88,29.87,10.0,Calm,Calm,-,N/A,,Scattered Clouds,0,2013-05-10 00:35:00
7:55 PM,66.2,62.6,88,29.88,10.0,South,3.5,-,N/A,,Clear,190,2013-05-10 00:55:00
8:15 PM,68.0,60.8,78,29.89,10.0,Calm,Calm,-,N/A,,Mostly Cloudy,0,2013-05-10 01:15:00
8:35 PM,68.0,59.0,73,29.89,10.0,Calm,Calm,-,N/A,,Mostly Cloudy,0,2013-05-10 01:35:00
8:55 PM,68.0,59.0,73,29.90,10.0,South,3.5,-,N/A,,Scattered Clouds,190,2013-05-10 01:55:00
9:15 PM,68.0,57.2,68,29.90,10.0,Calm,Calm,-,N/A,,Scattered Clouds,0,2013-05-10 02:15:00
9:35 PM,66.2,57.2,73,29.91,10.0,Calm,Calm,-,N/A,,Scattered Clouds,0,2013-05-10 02:35:00
9:55 PM,66.2,57.2,73,29.91,10.0,Calm,Calm,-,N/A,,Clear,0,2013-05-10 02:55:00
10:15 PM,64.4,60.8,88,29.91,10.0,Calm,Calm,-,N/A,,Scattered Clouds,0,2013-05-10 03:15:00
10:35 PM,62.6,60.8,94,29.91,10.0,Calm,Calm,-,N/A,,Scattered Clouds,0,2013-05-10 03:35:00
10:55 PM,62.6,60.8,94,29.91,10.0,Calm,Calm,-,N/A,,Mostly Cloudy,0,2013-05-10 03:55:00
11:15 PM,62.6,62.6,100,29.91,10.0,Calm,Calm,-,N/A,,Overcast,0,2013-05-10 04:15:00
11:35 PM,64.4,60.8,88,29.90,10.0,Calm,Calm,-,N/A,,Mostly Cloudy,0,2013-05-10 04:35:00
11:55 PM,62.6,60.8,94,29.90,10.0,Calm,Calm,-,N/A,,Scattered Clouds,0,2013-05-10 04:55:00